Terminal Aerodrome Forecast
Issued by NWS

Home | Current Version | Previous Version | Text Only | Print | Product List | Glossary On
Versions: 1 2 3 4 5 6 7 8 9 10 11 12 13 14 15 16 17 18 19 20 21 22 23 24 25 26 27 28 29 30 31 32 33 34 35 36 37 38 39 40 41 42
000
FTUS42 KCAE 190200 AAA
TAFDNL
TAF AMD
KDNL 190230Z 1903/1924 VRB04KT P6SM SCT250
     FM190900 VRB03KT 3SM BR BKN008
     FM191500 VRB04KT P6SM BKN015
     FM191900 09006KT P6SM SCT035=

USA.gov is the U.S. government's official web portal to all federal, state and local government web resources and services.